Weather History for Millinocket, ME

Change the Weather History Date:

Monday, March 11, 2013

  Actual Average Record
Temperature  
Mean Temperature 39 °F 26 °F  
Max Temperature 45 °F 36 °F 60 °F (1977)
Min Temperature 32 °F 16 °F -15 °F (1972)
Degree Days  
Heating Degree Days 26 39  
Month to date heating degree days 339 443  
Since 1 July heating degree days 5890 6495  
Cooling Degree Days 0 0  
Month to date cooling degree days 0 0  
Year to date cooling degree days 0 0  
Moisture  
Dew Point 30 °F    
Average Humidity 76    
Maximum Humidity 89    
Minimum Humidity 62    
Precipitation  
Precipitation 0.00 in 0.08 in 1.52 in (1903)
Month to date precipitation 0.41 0.83  
Year to date precipitation 3.84 5.94  
Sea Level Pressure  
Sea Level Pressure 30.20 in    
Wind  
Wind Speed 5 mph (South)    
Max Wind Speed 10 mph    
Max Gust Speed 17 mph    
Visibility 10 miles    
Events      
T = Trace of Precipitation, MM = Missing Value Source: NWS Daily Summary

Daily Weather History Graph

Daily Weather History Graph

Search for Another Location

Airport:

Trip Planner

Search our weather history database for the weather conditions in past years. The results will help you decide how hot, cold, wet, or windy it might be!

Date:

Astronomy

Mar. 11, 2013 Rise Set
Actual Time 6:54 AM EDT 6:35 PM EDT
Civil Twilight 6:24 AM EDT 7:05 PM EDT
Nautical Twilight 5:50 AM EDT 7:39 PM EDT
Astronomical Twilight 5:15 AM EDT 8:14 PM EDT
Moon 6:25 AM EDT (3/11) 6:46 PM EDT (3/11)
Length of Visible Light 12h 40m
Length of Day
11h 41m
Waning Crescent, 0% of the Moon is Illuminated
Mar 11
Waning Crescent
Mar 11
New
Mar 19
First Quarter
Mar 27
Full
Apr 3
Last Quarter

Hourly Weather History & Observations

Time (EDT) Temp. Windchill Dew Point Humidity Pressure Visibility Wind Dir Wind Speed Gust Speed Precip Events Conditions
12:26 AM 32.0 °F 27.5 °F 26.6 °F 80% 30.24 in 10.0 mi Variable 4.6 mph - N/A   Mostly Cloudy
12:53 AM 32.0 °F - 26.1 °F 79% 30.28 in 10.0 mi Calm Calm - N/A   Mostly Cloudy
1:53 AM 32.0 °F 27.5 °F 26.1 °F 79% 30.27 in 10.0 mi Variable 4.6 mph - N/A   Overcast
2:01 AM 32.0 °F 28.7 °F 26.6 °F 80% 30.25 in 10.0 mi Variable 3.5 mph - N/A   Overcast
2:53 AM 32.0 °F 27.5 °F 27.0 °F 82% 30.26 in 10.0 mi Variable 4.6 mph - N/A   Overcast
3:53 AM 32.0 °F 26.4 °F 27.0 °F 82% 30.23 in 10.0 mi South 5.8 mph - N/A   Overcast
4:53 AM 33.1 °F 28.7 °F 28.0 °F 82% 30.22 in 10.0 mi Variable 4.6 mph - N/A   Overcast
5:53 AM 33.1 °F 28.7 °F 28.0 °F 82% 30.21 in 10.0 mi Variable 4.6 mph - N/A   Overcast
6:53 AM 33.1 °F 30.0 °F 28.0 °F 82% 30.24 in 10.0 mi SSE 3.5 mph - N/A   Overcast
7:53 AM 33.1 °F 27.7 °F 28.9 °F 85% 30.25 in 9.0 mi South 5.8 mph - N/A   Overcast
8:53 AM 34.0 °F 31.0 °F 30.0 °F 85% 30.25 in 8.0 mi Variable 3.5 mph - N/A   Overcast
9:53 AM 36.0 °F 29.6 °F 30.9 °F 82% 30.23 in 9.0 mi South 8.1 mph - N/A   Overcast
10:26 AM 37.4 °F 32.8 °F 30.2 °F 75% 30.20 in 10.0 mi Variable 5.8 mph - N/A   Overcast
10:53 AM 37.0 °F 30.4 °F 30.9 °F 79% 30.23 in 10.0 mi South 9.2 mph - N/A   Overcast
11:53 AM 39.0 °F 35.7 °F 32.0 °F 76% 30.22 in 10.0 mi Variable 4.6 mph - N/A   Overcast
12:53 PM 39.9 °F 36.7 °F 32.0 °F 73% 30.20 in 10.0 mi Variable 4.6 mph - N/A   Overcast
1:50 PM 42.8 °F 39.3 °F 32.0 °F 66% 30.17 in 10.0 mi Variable 5.8 mph - N/A   Scattered Clouds
1:53 PM 43.0 °F 38.8 °F 32.0 °F 65% 30.20 in 10.0 mi Variable 6.9 mph - N/A   Partly Cloudy
2:53 PM 45.0 °F 43.5 °F 32.0 °F 60% 30.17 in 10.0 mi Variable 3.5 mph - N/A   Mostly Cloudy
3:53 PM 45.0 °F 42.6 °F 32.0 °F 60% 30.16 in 10.0 mi Variable 4.6 mph - N/A   Mostly Cloudy
4:53 PM 44.1 °F 40.8 °F 32.0 °F 63% 30.14 in 10.0 mi Variable 5.8 mph - N/A   Scattered Clouds
5:53 PM 43.0 °F 38.8 °F 32.0 °F 65% 30.15 in 10.0 mi South 6.9 mph - N/A   Clear
6:53 PM 42.1 °F 39.2 °F 30.9 °F 65% 30.16 in 10.0 mi Variable 4.6 mph - N/A   Partly Cloudy
7:53 PM 39.9 °F 35.8 °F 32.0 °F 73% 30.16 in 10.0 mi Variable 5.8 mph - N/A   Mostly Cloudy
8:53 PM 37.9 °F 34.4 °F 32.0 °F 79% 30.17 in 10.0 mi Variable 4.6 mph - N/A   Scattered Clouds
9:16 PM 37.4 °F 33.8 °F 33.8 °F 87% 30.15 in 9.0 mi Variable 4.6 mph - N/A   Overcast
9:53 PM 37.9 °F 35.5 °F 33.1 °F 83% 30.17 in 9.0 mi Variable 3.5 mph - N/A   Overcast
10:53 PM 37.9 °F 35.5 °F 33.1 °F 83% 30.15 in 9.0 mi Variable 3.5 mph - N/A   Overcast
11:53 PM 37.9 °F 33.5 °F 34.0 °F 86% 30.13 in 8.0 mi South 5.8 mph - N/A   Overcast